Flag for Ecuador Weather past 2 weeks in Guayaquil, Ecuador

Now
90 °F

Passing clouds.


Feels Like: 93 °F
Forecast: 71 / 90 °F
Wind: 7 mph from South

Location: Guayaquil / Simon Bolivar

Current Time: Aug 30, 2015 at 1:33:19 PM

Latest Report: Aug 30, 2015 at 1:00 PM


Visibility: N/A

Pressure: 29.80 "Hg

Humidity: 49%

Dew point: 68 °F

Location of GuayaquilLocation

Historic Weather in Guayaquil — Graph

°F

Guayaquil temperature yesterday

Maximum temperature yesterday: 88 °F (at 3:00 PM)
Minimum temperature yesterday: 73 °F (at 12:00 AM)
Average temperature yesterday: 78 °F

Past Weeks' High & Low Weather Summary

 TemperatureHumidityPressure
High90 °F (Aug 21, 3:00 PM)100% (Aug 27, 4:00 AM)29.95 "Hg (Aug 27, 4:00 AM)
Low36 °F (Aug 27, 4:00 AM)52% (Aug 25, 3:00 PM)29.71 "Hg (Aug 28, 4:00 PM)
Average77 °F73%29.84 "Hg
* Reported Aug 15 12:00 Noon — Aug 30 12:00 Noon, Guayaquil, Weather by CustomWeather, © 2015

Note: Actual official high and low records may vary slightly from our data, if they occured in-between our weather recording intervals... More about our weather records

Advertising

Guayaquil weather history for previous 24 hours

 ConditionsComfort  
Time TempWeatherWind HumidityBarometerVisibility
12:00 PM
Sun, Aug 30
86 °FPassing clouds.8 mph55%29.86 "HgN/A
11:00 AM84 °FScattered clouds.9 mph58%29.86 "HgN/A
10:00 AM81 °FPartly sunny.8 mph66%29.89 "HgN/A
9:00 AM79 °FPartly sunny.9 mph70%29.89 "HgN/A
8:00 AM75 °FScattered clouds.8 mph74%29.86 "HgN/A
7:00 AM72 °FBroken clouds.8 mph83%29.86 "HgN/A
6:00 AM72 °FOvercast.8 mph83%29.86 "HgN/A
5:00 AM72 °FMild.8 mph83%29.83 "HgN/A
4:00 AM72 °FPassing clouds.6 mph83%29.83 "HgN/A
3:00 AM72 °FClear.7 mph78%29.86 "Hg10 mi
1:00 AM72 °FClear.10 mph78%29.86 "Hg10 mi
12:00 AM72 °FClear.15 mph83%29.86 "Hg10 mi
11:00 PM
Sat, Aug 29
73 °FPassing clouds.15 mph78%29.86 "HgN/A
10:00 PM73 °FPassing clouds.14 mph78%29.86 "HgN/A
9:00 PM75 °FPassing clouds.13 mph74%29.83 "HgN/A
8:00 PM77 °FPassing clouds.14 mph69%29.80 "HgN/A
7:00 PM79 °FPassing clouds.13 mph65%29.80 "HgN/A
6:00 PM82 °FPassing clouds.12 mph62%29.77 "HgN/A
5:00 PM84 °FPassing clouds.10 mph62%29.74 "HgN/A
4:00 PM84 °FScattered clouds.10 mph62%29.74 "HgN/A
3:00 PM88 °FScattered clouds.9 mph55%29.74 "HgN/A
2:00 PM86 °FBroken clouds.8 mph59%29.77 "HgN/A
1:00 PM86 °FScattered clouds.8 mph59%29.80 "HgN/A
Weather by CustomWeather, © 2015

See weather overviewHow to use our weather pages